Weather History for Valley City, ND

Change the Weather History Date:

Friday, November 8, 2013

  Actual Average (KJMS) Record (KJMS)
Temperature  
Mean Temperature 30 °F 32 °F  
Max Temperature 41 °F 42 °F 74 °F (1999)
Min Temperature 19 °F 22 °F -3 °F (1966)
Degree Days  
Heating Degree Days 35 33  
Month to date heating degree days 246  
Since 1 July heating degree days 1213  
Cooling Degree Days 0 0  
Month to date cooling degree days 0  
Year to date cooling degree days 446  
Moisture  
Dew Point 30 °F    
Average Humidity 84    
Maximum Humidity 100    
Minimum Humidity 65    
Precipitation  
Precipitation 0.01 in 0.03 in 0.91 in (1977)
Month to date precipitation 0.21  
Year to date precipitation 17.95  
Sea Level Pressure  
Sea Level Pressure 29.71 in    
Wind  
Wind Speed 10 mph (SSE)    
Max Wind Speed 23 mph    
Max Gust Speed 30 mph    
Visibility 10 miles    
Events Snow    
T = Trace of Precipitation, MM = Missing Value Source: NWS Daily Summary

Daily Weather History Graph

Daily Weather History Graph

Search for Another Location

Airport:

Trip Planner

Search our weather history database for the weather conditions in past years. The results will help you decide how hot, cold, wet, or windy it might be!

Date:

Astronomy

Nov. 08, 2013 Rise Set
Actual Time 7:25 AM CST 5:05 PM CST
Civil Twilight 6:52 AM CST 5:38 PM CST
Nautical Twilight 6:16 AM CST 6:14 PM CST
Astronomical Twilight 5:40 AM CST 6:50 PM CST
Moon 12:22 PM CST (11/8) 10:29 PM CST (11/8)
Length of Visible Light 10h 45m
Length of Day
9h 40m
Waxing Crescent, 33% of the Moon is Illuminated
Nov 8
Waxing Crescent
Nov 9
First Quarter
Nov 17
Full
Nov 25
Last Quarter
Dec 2
New

Hourly Weather History & Observations

Time (CST) Temp. Windchill Dew Point Humidity Pressure Visibility Wind Dir Wind Speed Gust Speed Precip Events Conditions
12:15 AM 19.4 °F 11.5 °F 19.4 °F 100% 30.06 in 10.0 mi South 5.8 mph - N/A   Clear
12:35 AM 19.4 °F 14.3 °F 19.4 °F 100% 30.05 in 10.0 mi South 3.5 mph - N/A   Clear
12:55 AM 19.4 °F 12.8 °F 19.4 °F 100% 30.05 in 10.0 mi SSW 4.6 mph - N/A   Scattered Clouds
1:15 AM 23.0 °F 13.9 °F 23.0 °F 100% 30.05 in 10.0 mi South 8.1 mph - N/A   Partly Cloudy
1:35 AM 23.0 °F 15.8 °F 23.0 °F 100% 30.04 in 10.0 mi South 5.8 mph - N/A   Mostly Cloudy
1:55 AM 24.8 °F 17.9 °F 24.8 °F 100% 30.03 in 10.0 mi SSE 5.8 mph - N/A   Mostly Cloudy
2:15 AM 24.8 °F 19.1 °F 24.8 °F 100% 30.01 in 10.0 mi South 4.6 mph - N/A   Mostly Cloudy
2:35 AM 24.8 °F 19.1 °F 24.8 °F 100% 30.00 in 10.0 mi SSE 4.6 mph - N/A   Mostly Cloudy
2:55 AM 26.6 °F 21.2 °F 26.6 °F 100% 29.99 in 10.0 mi SE 4.6 mph - N/A   Mostly Cloudy
3:15 AM 26.6 °F 21.2 °F 24.8 °F 93% 29.97 in 10.0 mi SE 4.6 mph - N/A   Overcast
3:35 AM 32.0 °F 24.8 °F 26.6 °F 80% 29.96 in 10.0 mi SE 8.1 mph - N/A   Overcast
3:55 AM 32.0 °F 24.2 °F 26.6 °F 80% 29.95 in 10.0 mi SSE 9.2 mph - N/A   Overcast
4:15 AM 32.0 °F 24.2 °F 26.6 °F 80% 29.94 in 10.0 mi SSE 9.2 mph - N/A   Overcast
4:35 AM 32.0 °F 23.0 °F 26.6 °F 80% 29.92 in 10.0 mi SSE 11.5 mph - N/A   Overcast
4:55 AM 32.0 °F 24.8 °F 26.6 °F 80% 29.91 in 10.0 mi SSE 8.1 mph - N/A   Mostly Cloudy
5:15 AM 32.0 °F 23.6 °F 24.8 °F 75% 29.89 in 10.0 mi SE 10.4 mph - N/A   Scattered Clouds
5:35 AM 32.0 °F 23.0 °F 24.8 °F 75% 29.88 in 10.0 mi SSE 11.5 mph 16.1 mph N/A   Mostly Cloudy
5:55 AM 32.0 °F 22.1 °F 24.8 °F 75% 29.86 in 10.0 mi SE 13.8 mph 17.3 mph N/A   Overcast
6:15 AM 32.0 °F 23.0 °F 26.6 °F 80% 29.84 in 10.0 mi SE 11.5 mph - N/A   Overcast
6:35 AM 32.0 °F 21.2 °F 26.6 °F 80% 29.82 in 10.0 mi SE 16.1 mph 19.6 mph N/A   Overcast
6:55 AM 32.0 °F 21.6 °F 26.6 °F 80% 29.80 in 10.0 mi ESE 15.0 mph 19.6 mph N/A   Overcast
7:15 AM 32.0 °F 21.2 °F 28.4 °F 87% 29.78 in 10.0 mi SE 16.1 mph 21.9 mph N/A   Mostly Cloudy
7:35 AM 32.0 °F 21.2 °F 28.4 °F 87% 29.76 in 10.0 mi ESE 16.1 mph 21.9 mph N/A   Overcast
7:55 AM 33.8 °F 23.2 °F 28.4 °F 81% 29.73 in 10.0 mi ESE 17.3 mph - N/A Snow Light Snow
8:15 AM 35.6 °F 24.8 °F 28.4 °F 75% 29.72 in 10.0 mi SE 19.6 mph 29.9 mph N/A Snow Light Snow
8:35 AM 35.6 °F 25.2 °F 28.4 °F 75% 29.72 in 10.0 mi SE 18.4 mph 28.8 mph 0.01 in Snow Light Snow
8:55 AM 35.6 °F 25.9 °F 28.4 °F 75% 29.72 in 10.0 mi SE 16.1 mph 24.2 mph 0.01 in   Overcast
9:15 AM 35.6 °F 26.2 °F 28.4 °F 75% 29.70 in 10.0 mi SE 15.0 mph 23.0 mph N/A   Overcast
9:35 AM 37.4 °F 27.8 °F 26.6 °F 65% 29.69 in 10.0 mi SE 17.3 mph 29.9 mph N/A Snow Light Snow
9:55 AM 35.6 °F 25.5 °F 26.6 °F 70% 29.68 in 10.0 mi SSE 17.3 mph 26.5 mph N/A Snow Light Snow
10:15 AM 37.4 °F 27.8 °F 26.6 °F 65% 29.67 in 10.0 mi SE 17.3 mph 26.5 mph N/A Snow Light Snow
10:35 AM 37.4 °F 28.2 °F 26.6 °F 65% 29.68 in 10.0 mi SSE 16.1 mph - N/A   Clear
10:55 AM 37.4 °F 30.3 °F 28.4 °F 70% 29.66 in 10.0 mi SSE 10.4 mph 18.4 mph N/A   Partly Cloudy
11:15 AM 37.4 °F 28.5 °F 28.4 °F 70% 29.64 in 10.0 mi SSE 15.0 mph 24.2 mph N/A Snow Light Snow
11:35 AM 39.2 °F 29.8 °F 28.4 °F 65% 29.63 in 10.0 mi SSE 18.4 mph 27.6 mph N/A   Partly Cloudy
11:55 AM 39.2 °F 28.7 °F 28.4 °F 65% 29.61 in 10.0 mi SSE 23.0 mph 28.8 mph N/A   Partly Cloudy
12:15 PM 39.2 °F 30.5 °F 28.4 °F 65% 29.60 in 10.0 mi SSE 16.1 mph 26.5 mph N/A   Scattered Clouds
12:35 PM 39.2 °F 31.6 °F 28.4 °F 65% 29.60 in 10.0 mi SSE 12.7 mph 24.2 mph N/A   Scattered Clouds
12:55 PM 39.2 °F 30.8 °F 28.4 °F 65% 29.58 in 10.0 mi SSE 15.0 mph 19.6 mph N/A   Scattered Clouds
1:15 PM 39.2 °F 30.8 °F 28.4 °F 65% 29.57 in 10.0 mi SE 15.0 mph 20.7 mph N/A   Clear
1:35 PM 39.2 °F 30.5 °F 28.4 °F 65% 29.56 in 10.0 mi SSE 16.1 mph 20.7 mph N/A   Partly Cloudy
1:55 PM 39.2 °F 30.8 °F 28.4 °F 65% 29.55 in 10.0 mi SSE 15.0 mph - N/A   Partly Cloudy
2:15 PM 39.2 °F 31.6 °F 28.4 °F 65% 29.55 in 10.0 mi SSE 12.7 mph - N/A   Scattered Clouds
2:35 PM 39.2 °F 32.5 °F 28.4 °F 65% 29.55 in 10.0 mi SSE 10.4 mph - N/A   Partly Cloudy
2:55 PM 39.2 °F 33.6 °F 28.4 °F 65% 29.54 in 10.0 mi SSE 8.1 mph - N/A   Mostly Cloudy
3:15 PM 39.2 °F 33.6 °F 30.2 °F 70% 29.55 in 10.0 mi SSE 8.1 mph - N/A   Mostly Cloudy
3:35 PM 39.2 °F 32.5 °F 32.0 °F 75% 29.54 in 10.0 mi SSE 10.4 mph - N/A   Mostly Cloudy
3:55 PM 37.4 °F 30.3 °F 32.0 °F 81% 29.55 in 10.0 mi SSE 10.4 mph - N/A   Overcast
4:15 PM 37.4 °F 31.4 °F 33.8 °F 87% 29.55 in 10.0 mi SSE 8.1 mph - N/A   Overcast
4:35 PM 37.4 °F 32.8 °F 35.6 °F 93% 29.55 in 10.0 mi SSE 5.8 mph - N/A   Overcast
4:55 PM 37.4 °F 32.8 °F 35.6 °F 93% 29.55 in 10.0 mi SSE 5.8 mph - N/A   Overcast
5:15 PM 37.4 °F 31.4 °F 35.6 °F 93% 29.55 in 10.0 mi SSE 8.1 mph - N/A   Overcast
5:35 PM 37.4 °F 33.8 °F 35.6 °F 93% 29.56 in 10.0 mi South 4.6 mph - N/A   Overcast
5:55 PM 35.6 °F 32.8 °F 35.6 °F 100% 29.57 in 10.0 mi SW 3.5 mph - N/A   Overcast
6:15 PM 35.6 °F - 35.6 °F 100% 29.57 in 10.0 mi Calm Calm - N/A   Overcast
6:35 PM 35.6 °F - 35.6 °F 100% 29.57 in 10.0 mi Calm Calm - N/A   Overcast
6:55 PM 33.8 °F - 33.8 °F 100% 29.57 in 10.0 mi Calm Calm - N/A   Overcast
7:15 PM 32.0 °F 26.4 °F 32.0 °F 100% 29.57 in 10.0 mi WSW 5.8 mph - N/A   Overcast
7:35 PM 35.6 °F 28.0 °F 35.6 °F 100% 29.58 in 10.0 mi West 10.4 mph - N/A   Overcast
7:55 PM 37.4 °F 30.3 °F 37.4 °F 100% 29.57 in 10.0 mi West 10.4 mph - N/A   Overcast
8:15 PM 37.4 °F 30.8 °F 35.6 °F 93% 29.57 in 10.0 mi WNW 9.2 mph - N/A   Overcast
8:35 PM 37.4 °F 30.8 °F 35.6 °F 93% 29.58 in 10.0 mi West 9.2 mph - N/A   Overcast
8:55 PM 37.4 °F 30.3 °F 35.6 °F 93% 29.59 in 10.0 mi West 10.4 mph - N/A   Overcast
9:15 PM 37.4 °F 29.8 °F 35.6 °F 93% 29.59 in 10.0 mi West 11.5 mph - N/A   Overcast
9:35 PM 39.2 °F 32.0 °F 35.6 °F 87% 29.59 in 10.0 mi WNW 11.5 mph - N/A   Overcast
9:55 PM 39.2 °F 32.5 °F 35.6 °F 87% 29.60 in 10.0 mi WNW 10.4 mph - N/A   Overcast
10:15 PM 39.2 °F 32.5 °F 35.6 °F 87% 29.60 in 10.0 mi NW 10.4 mph - N/A   Overcast
10:35 PM 39.2 °F 31.2 °F 37.4 °F 93% 29.62 in 10.0 mi WNW 13.8 mph - N/A   Overcast
10:55 PM 39.2 °F 30.8 °F 37.4 °F 93% 29.62 in 10.0 mi WNW 15.0 mph 24.2 mph N/A   Overcast
11:15 PM 39.2 °F 31.2 °F 39.2 °F 100% 29.63 in 10.0 mi WNW 13.8 mph - N/A   Overcast
11:35 PM 41.0 °F 32.8 °F 39.2 °F 93% 29.63 in 10.0 mi WNW 16.1 mph - N/A   Overcast
11:55 PM 41.0 °F 31.1 °F 39.2 °F 93% 29.64 in 10.0 mi WNW 23.0 mph 27.6 mph N/A   Overcast